TimeEDT,TemperatureF,Dew PointF,Humidity,Sea Level PressureIn,VisibilityMPH,Wind Direction,Wind SpeedMPH,Gust SpeedMPH,PrecipitationIn,Events,Conditions,WindDirDegrees,DateUTC
12:15 AM,53.6,42.8,67,30.26,10.0,North,3.5,-,N/A,,Clear,350,2013-03-28 04:15:00
12:35 AM,53.6,41.0,62,30.25,10.0,North,3.5,-,N/A,,Clear,350,2013-03-28 04:35:00
12:55 AM,51.8,42.8,71,30.25,10.0,NW,3.5,-,N/A,,Clear,310,2013-03-28 04:55:00
1:15 AM,51.8,44.6,76,30.25,10.0,NW,3.5,-,N/A,,Clear,310,2013-03-28 05:15:00
1:35 AM,50.0,42.8,76,30.25,10.0,NW,3.5,-,N/A,,Clear,310,2013-03-28 05:35:00
1:55 AM,51.8,44.6,76,30.25,10.0,NW,4.6,-,N/A,,Clear,320,2013-03-28 05:55:00
2:15 AM,50.0,42.8,76,30.24,10.0,NW,4.6,-,N/A,,Clear,310,2013-03-28 06:15:00
2:35 AM,51.8,44.6,76,30.24,10.0,NW,4.6,-,N/A,,Clear,310,2013-03-28 06:35:00
2:55 AM,50.0,44.6,82,30.24,10.0,NW,3.5,-,N/A,,Clear,320,2013-03-28 06:55:00
3:15 AM,51.8,42.8,71,30.24,10.0,NW,4.6,-,N/A,,Clear,320,2013-03-28 07:15:00
3:35 AM,51.8,42.8,71,30.23,10.0,NW,5.8,-,N/A,,Clear,320,2013-03-28 07:35:00
3:55 AM,51.8,42.8,71,30.23,10.0,NNW,4.6,-,N/A,,Clear,330,2013-03-28 07:55:00
4:15 AM,51.8,42.8,71,30.23,10.0,NNW,5.8,-,N/A,,Clear,330,2013-03-28 08:15:00
4:35 AM,50.0,41.0,71,30.23,10.0,NW,6.9,-,N/A,,Clear,320,2013-03-28 08:35:00
4:55 AM,50.0,42.8,76,30.23,10.0,NW,5.8,-,N/A,,Clear,320,2013-03-28 08:55:00
5:15 AM,48.2,42.8,82,30.23,10.0,NW,5.8,-,N/A,,Clear,320,2013-03-28 09:15:00
5:35 AM,48.2,44.6,87,30.23,10.0,NW,5.8,-,N/A,,Clear,320,2013-03-28 09:35:00
5:55 AM,48.2,44.6,87,30.24,10.0,NNW,5.8,-,N/A,,Clear,330,2013-03-28 09:55:00
6:15 AM,48.2,42.8,82,30.24,10.0,NW,4.6,-,N/A,,Clear,320,2013-03-28 10:15:00
6:47 AM,48.2,42.8,82,30.24,10.0,NW,6.9,-,N/A,,Partly Cloudy,320,2013-03-28 10:47:00
8:50 AM,55.4,42.8,63,30.27,10.0,NW,11.5,-,N/A,,Partly Cloudy,320,2013-03-28 12:50:00
9:47 AM,59.0,41.0,51,30.29,10.0,NNW,9.2,-,N/A,,Partly Cloudy,330,2013-03-28 13:47:00
10:47 AM,62.6,44.6,52,30.31,10.0,North,9.2,-,N/A,,Partly Cloudy,350,2013-03-28 14:47:00
11:47 AM,64.4,44.6,49,30.31,10.0,North,11.5,16.1,N/A,,Partly Cloudy,350,2013-03-28 15:47:00
12:47 PM,-9999,-9999,N/A,30.29,10.0,North,9.2,-,N/A,,Partly Cloudy,10,2013-03-28 16:47:00
1:47 PM,66.2,41.0,40,30.28,10.0,North,8.1,-,N/A,,Partly Cloudy,10,2013-03-28 17:47:00
2:47 PM,66.2,41.0,40,30.25,10.0,NE,9.2,-,N/A,,Partly Cloudy,40,2013-03-28 18:47:00
5:47 PM,66.2,35.6,32,30.22,10.0,NE,12.7,-,N/A,,Partly Cloudy,40,2013-03-28 21:47:00
6:47 PM,64.4,37.4,37,30.22,10.0,NNE,9.2,-,N/A,,Clear,30,2013-03-28 22:47:00
8:15 PM,62.6,32.0,32,30.25,10.0,NNE,8.1,-,N/A,,Clear,30,2013-03-29 00:15:00
8:35 PM,62.6,32.0,32,30.26,10.0,NNE,6.9,-,N/A,,Clear,30,2013-03-29 00:35:00
8:55 PM,62.6,33.8,34,30.26,10.0,NE,8.1,-,N/A,,Clear,40,2013-03-29 00:55:00
9:15 PM,62.6,33.8,34,30.26,10.0,NNE,5.8,-,N/A,,Clear,30,2013-03-29 01:15:00
9:35 PM,62.6,35.6,37,30.26,10.0,NNE,8.1,-,N/A,,Clear,30,2013-03-29 01:35:00
9:55 PM,62.6,35.6,37,30.27,10.0,NNE,6.9,-,N/A,,Clear,20,2013-03-29 01:55:00
10:15 PM,62.6,39.2,42,30.28,10.0,NNE,5.8,-,N/A,,Clear,20,2013-03-29 02:15:00
10:35 PM,62.6,39.2,42,30.28,10.0,NNE,4.6,-,N/A,,Clear,20,2013-03-29 02:35:00
10:55 PM,62.6,41.0,45,30.28,10.0,NNE,6.9,-,N/A,,Clear,20,2013-03-29 02:55:00
11:15 PM,62.6,41.0,45,30.28,10.0,North,5.8,-,N/A,,Clear,10,2013-03-29 03:15:00
11:35 PM,62.6,41.0,45,30.28,10.0,North,6.9,-,N/A,,Clear,10,2013-03-29 03:35:00
11:55 PM,62.6,42.8,48,30.28,10.0,NNE,5.8,-,N/A,,Clear,20,2013-03-29 03:55:00